Location: Sumter
(33.9203°N, 80.3401°W)
Time: 22:25:39
(UTC+00:00)

ISS - Pass Details

Date: 23 August 2022
Orbit: 414 x 417 km, 51.6° (Epoch: 24 September)

Event Time Altitude Azimuth Distance (km) Brightness Sun altitude
Exits shadow 08:50:02 24° 121° (ESE) 922 -1.8 -23.3°
Drops below altitude 10° 08:52:31 10° 74° (ENE) 1,495 0.0 -22.9°
Sets 08:54:51 0° 60° (ENE) 2,361 1.6 -22.5°
